[[{"header":{"parameterUnit":"m.s-1","parameterCategory":1,"la1":30.2991,"la2":30.254,"lo1":-89.0895,"lo2":-89.0444,"dy":0.0017,"dx":0.0017,"nx":28,"ny":28,"refTime":"2024-08-18T03:00:00:Z","depth":0,"parameterNumber":2,"parameterNumberName":"U-component_of_WINDS"},"data":[0,0,0,0,0,0,0,0,0,0,0,0,0,0,0,0,0,0,0,0,0,0,0,0,0,0,0,0,0,0,0,0,0,0,0,0,0,0,0,0,0,0,0,0,0,0,0,0,0,0,0,0,0,0,0,0,0,0,3.1734,3.1732,0,3.1592,3.1591,3.1589,3.1411,3.1409,3.1406,3.1403,3.1255,3.1254,3.1253,0,0,0,0,0,0,0,0,0,0,0,0,0,3.1848,3.1847,3.1734,3.1732,3.1731,3.1593,3.1591,3.1589,3.1412,3.1408,3.1405,3.1402,3.1256,3.1254,3.1253,0,0,0,0,0,0,0,0,0,0,0,0,0,3.1762,3.1846,3.1734,3.1626,3.1615,3.1593,3.1591,3.1588,3.1413,3.1408,3.1404,3.14,3.1256,3.1254,3.1252,3.1325,0,0,3.1246,3.1246,0,0,0,0,0,0,0,0,3.1767,3.1758,3.1644,3.1633,3.1621,3.1515,3.1576,3.15,3.1414,3.1489,3.1403,3.1398,3.1345,3.1336,3.1318,3.1318,3.1312,3.1246,3.1245,3.1244,3.1244,0,0,0,0,0,0,0,3.1773,3.1763,3.1678,3.1642,3.1628,3.1583,3.1566,3.1561,3.1443,3.1482,3.1469,3.1455,3.1338,3.1321,3.1313,3.131,3.1246,3.1245,3.1243,3.1243,3.1358,3.1362,0,0,0,0,0,0,3.1796,3.1769,3.1682,3.1674,3.1685,3.1584,3.1565,3.1553,3.1442,3.1421,3.1459,3.1447,3.1326,3.1316,3.1308,3.1383,3.1244,3.1242,3.1241,3.1354,3.1359,3.1364,0,0,0,0,0,0,3.1799,3.179,3.1688,3.1718,3.1701,3.1587,3.1575,3.1553,3.1535,3.1424,3.1402,3.1463,3.1322,3.131,3.1321,3.1375,3.1242,3.124,3.1349,3.1356,3.1362,3.1536,0,0,0,0,0,0,3.1803,3.1792,3.1819,3.172,3.17,3.1706,3.1578,3.1553,3.1532,3.1516,3.1422,3.1403,3.1318,3.1325,3.132,3.137,3.1238,3.1344,3.1352,3.136,3.1525,3.1548,3.1567,0,0,0,0,0,3.1807,3.1874,3.1822,3.1812,3.1733,3.171,3.1699,3.1601,3.1538,3.1563,3.1492,3.1406,3.1371,3.1328,3.132,3.1371,3.134,3.135,3.1359,3.1516,3.1543,3.1567,0,0,0,0,0,0,3.1983,3.1859,3.18,3.1836,3.1785,3.168,3.171,3.1634,3.1598,3.1584,3.1463,3.1444,3.1469,3.1421,3.1376,3.1433,3.1342,3.1351,3.1464,3.1489,3.151,3.1521,3.1237,0,0,0,0,0,3.2026,3.2019,3.1911,3.1954,3.1931,3.1826,3.1812,3.1741,3.1682,3.1659,3.1589,3.1534,3.151,3.1497,3.147,3.1517,3.1493,3.1548,3.1569,3.1587,3.1595,3.1614,3.1636,3.1395,3.1395,3.1395,0,0,3.2115,3.2046,3.2049,3.1987,3.1939,3.1933,3.1808,3.1808,3.1801,3.1659,3.1665,3.1611,3.1542,3.1571,3.1581,3.1532,3.1656,3.1599,3.1614,3.1612,3.1626,3.1649,3.1669,3.1402,3.1401,3.14,0,0,3.2273,3.2222,3.225,3.2205,3.2133,3.2062,3.207,3.1976,3.1934,3.1939,3.1831,3.1821,3.1784,3.1738,3.171,3.1849,3.1767,3.1844,3.1953,3.1972,3.1991,3.2007,3.2055,3.2073,3.1852,3.1853,3.1853,0,3.2392,3.2379,3.2275,3.228,3.2255,3.2126,3.2153,3.2114,3.2037,3.2022,3.1969,3.1917,3.1862,3.1877,3.1911,3.1894,3.1896,3.1853,3.1997,3.2013,3.2026,3.207,3.2088,3.1862,3.1861,3.186,3.1859,0,3.2528,3.2521,3.2553,3.2482,3.246,3.2477,3.2373,3.2364,3.2294,3.2229,3.2233,3.2162,3.2116,3.2115,3.2047,3.212,3.2091,3.202,3.1925,3.206,3.2099,3.2115,3.1876,3.1873,3.187,3.1867,0,0,3.2792,3.2663,3.2676,3.2642,3.2553,3.2545,3.2555,3.2511,3.2504,3.2455,3.2458,3.2429,3.2361,3.233,3.2255,3.2273,3.2384,3.2198,3.2194,3.2233,3.2457,3.251,3.2531,3.233,3.2333,3.2335,3.2462,0,3.2932,3.2943,3.2848,3.2883,3.2874,3.2751,3.2759,3.2705,3.2643,3.2625,3.2556,3.2536,3.245,3.2429,3.2441,3.2369,3.2427,3.2358,3.2329,3.233,3.2349,3.2552,3.2609,3.2732,3.2476,3.2479,3.2481,0,3.3097,3.3058,3.3093,3.3,3.2993,3.3002,3.2953,3.2938,3.2873,3.2826,3.2791,3.2706,3.2706,3.2618,3.2615,3.257,3.2552,3.2515,3.2517,3.2509,3.2413,3.2548,3.2769,3.2787,3.2504,3.2502,3.2501,0,3.3284,3.324,3.3254,3.3228,3.3122,3.3131,3.3087,3.3017,3.2996,3.2953,3.2937,3.2895,3.2871,3.2839,3.2743,3.2688,3.2751,3.2655,3.271,3.2712,3.2728,3.2728,3.2947,3.272,3.272,3.2719,3.2719,0,3.3449,3.3474,3.3336,3.3345,3.3369,3.3259,3.3285,3.3229,3.3168,3.3162,3.3053,3.3049,3.2924,3.2905,3.2831,3.2838,3.2829,3.2789,3.2769,3.2798,3.2803,3.2784,3.2772,3.2724,3.2723,3.2722,3.2721,0,3.3661,3.357,3.3577,3.3476,3.3451,3.3473,3.3385,3.3387,3.3319,3.3313,3.3305,3.3197,3.3169,3.3071,3.3019,3.2968,3.2998,3.296,3.3021,3.3007,3.3067,3.3062,3.3281,3.3303,3.3064,3.3067,3.3069,0,3.3772,3.3788,3.3689,3.3678,3.3639,3.3622,3.36,3.3492,3.3473,3.3399,3.341,3.3374,3.3339,3.33,3.3215,3.3174,3.3133,3.3212,3.3126,3.3154,3.3131,3.3131,3.313,3.3231,3.3234,3.3236,3.3238,0,3.3977,3.3931,3.3904,3.3861,3.3838,3.3799,3.3753,3.375,3.3629,3.3613,3.3584,3.3557,3.3503,3.3468,3.3413,3.3364,3.3281,3.3267,3.3276,3.3306,3.334,3.332,3.307,3.3262,3.3259,3.3258,3.3256,3.3255,3.414,3.4148,3.4079,3.4052,3.4007,3.3966,3.3963,3.3895,3.3869,3.3818,3.3755,3.3734,3.3664,3.3582,3.354,3.3519,3.3473,3.3489,3.3492,3.3497,3.3511,3.3345,3.3509,3.3508,3.3507,3.3507,3.3506,0,3.4337,3.4287,3.4264,3.4203,3.4182,3.4107,3.4052,3.4038,3.4021,3.3965,3.3933,3.3898,3.3862,3.3775,3.373,3.373,3.369,3.3722,3.372,3.3709,3.3555,3.355,3.3754,3.3754,3.3754,3.3754,3.3754,3.3754,3.4438,3.4447,3.4393,3.4378,3.4326,3.4305,3.428,3.4241,3.4195,3.4162,3.4132,3.4076,3.4006,3.3955,3.3918,3.3893,3.388,3.3924,3.3887,3.3744,3.372,3.3698,3.3692,3.3923,3.3923,3.4042,3.4043,3.4044]},{"header":{"parameterUnit":"m.s-1","parameterCategory":1,"la1":30.2991,"la2":30.254,"lo1":-89.0895,"lo2":-89.0444,"dy":0.0017,"dx":0.0017,"nx":28,"ny":28,"refTime":"2024-08-18T03:00:00:Z","depth":0,"parameterNumber":3,"parameterNumberName":"V-component_of_WINDS"},"data":[0,0,0,0,0,0,0,0,0,0,0,0,0,0,0,0,0,0,0,0,0,0,0,0,0,0,0,0,0,0,0,0,0,0,0,0,0,0,0,0,0,0,0,0,0,0,0,0,0,0,0,0,0,0,0,0,0,0,3.9628,3.9627,0,3.9548,3.9547,3.9546,3.9478,3.9477,3.9476,3.9475,3.9391,3.939,3.9388,0,0,0,0,0,0,0,0,0,0,0,0,0,3.972,3.9719,3.9628,3.9627,3.9626,3.9548,3.9547,3.9546,3.9478,3.9477,3.9476,3.9475,3.9392,3.939,3.9388,0,0,0,0,0,0,0,0,0,0,0,0,0,3.9664,3.9719,3.9628,3.9583,3.9578,3.9548,3.9547,3.9545,3.9478,3.9477,3.9476,3.9475,3.9392,3.939,3.9388,3.9396,0,0,3.9381,3.938,0,0,0,0,0,0,0,0,3.9667,3.9661,3.9591,3.9586,3.9581,3.9522,3.9548,3.9495,3.9478,3.9516,3.9475,3.9474,3.9435,3.9429,3.9417,3.9392,3.9388,3.938,3.9379,3.9378,3.9377,0,0,0,0,0,0,0,3.9671,3.9664,3.9596,3.959,3.9584,3.9566,3.9556,3.9538,3.9483,3.9512,3.9507,3.9499,3.9432,3.9419,3.9414,3.9387,3.9381,3.9378,3.9377,3.9376,3.9361,3.9362,0,0,0,0,0,0,3.9683,3.9668,3.9599,3.9594,3.9622,3.9565,3.9554,3.9542,3.9483,3.9473,3.95,3.9496,3.9424,3.9417,3.9411,3.9413,3.9378,3.9376,3.9375,3.936,3.9361,3.9362,0,0,0,0,0,0,3.9685,3.9677,3.9602,3.9629,3.9618,3.9564,3.955,3.9541,3.9527,3.9473,3.9463,3.9497,3.9422,3.9414,3.9399,3.941,3.9375,3.9373,3.9359,3.936,3.9361,3.9421,0,0,0,0,0,0,3.9688,3.9678,3.9682,3.963,3.9617,3.9593,3.9551,3.954,3.9524,3.9518,3.9467,3.9458,3.9421,3.9403,3.9397,3.9406,3.9371,3.9357,3.9359,3.9361,3.9418,3.9424,3.943,0,0,0,0,0,3.9691,3.9702,3.9682,3.9674,3.962,3.9594,3.9586,3.9544,3.9525,3.9527,3.9492,3.946,3.941,3.9402,3.9395,3.9403,3.9356,3.9359,3.9361,3.9415,3.9423,3.9429,0,0,0,0,0,0,3.9756,3.9694,3.9672,3.9666,3.9636,3.9582,3.9584,3.9554,3.9528,3.9524,3.9472,3.9461,3.9451,3.9426,3.9418,3.9406,3.9379,3.938,3.9422,3.943,3.9435,3.9441,3.9369,0,0,0,0,0,3.977,3.9755,3.9701,3.9701,3.9687,3.9638,3.9625,3.9595,3.9561,3.9548,3.9512,3.9479,3.9456,3.9442,3.9418,3.9414,3.94,3.9416,3.9422,3.9427,3.9428,3.9421,3.9426,3.9369,3.9369,3.9369,0,0,3.9798,3.9762,3.9756,3.9713,3.9686,3.9669,3.9628,3.9613,3.9599,3.9545,3.9528,3.9501,3.9461,3.9451,3.9445,3.9429,3.9441,3.943,3.9435,3.9432,3.9424,3.9429,3.9434,3.9371,3.937,3.937,0,0,3.984,3.9813,3.9808,3.9782,3.9741,3.9708,3.9707,3.9658,3.9637,3.962,3.9578,3.9561,3.9523,3.9495,3.9476,3.9506,3.9474,3.95,3.9531,3.9524,3.9529,3.9532,3.954,3.9544,3.9501,3.9501,3.9501,0,3.988,3.9854,3.981,3.9796,3.9778,3.9728,3.9722,3.9698,3.9652,3.964,3.9624,3.9573,3.9543,3.9524,3.9531,3.9519,3.9514,3.9504,3.9532,3.9535,3.9538,3.9544,3.9548,3.9504,3.9504,3.9504,3.9503,0,3.9903,3.9886,3.9887,3.9843,3.9825,3.9815,3.9768,3.9755,3.9726,3.9695,3.9676,3.9638,3.9604,3.9598,3.957,3.9574,3.9566,3.9542,3.9513,3.9547,3.9552,3.9555,3.9509,3.9508,3.9507,3.9506,0,0,3.9983,3.9914,3.9915,3.9893,3.9844,3.9829,3.9817,3.9783,3.9772,3.9741,3.9727,3.9696,3.9672,3.9651,3.9619,3.9615,3.9637,3.959,3.9589,3.9598,3.9635,3.9652,3.9656,3.9616,3.9617,3.9617,3.9638,0,4.0014,3.999,3.9949,3.9936,3.9918,3.9871,3.9859,3.9827,3.9797,3.9776,3.9743,3.972,3.9693,3.9679,3.9672,3.9636,3.9643,3.9634,3.9601,3.96,3.961,3.9659,3.9677,3.9698,3.964,3.964,3.964,0,4.0048,4.002,4.0006,3.9956,3.9947,3.9937,3.9902,3.9884,3.9846,3.9824,3.9799,3.9765,3.9747,3.9723,3.9696,3.969,3.9674,3.9654,3.9654,3.9647,3.9621,3.9651,3.9705,3.9707,3.9644,3.9643,3.9643,0,4.0104,4.0062,4.0048,4.0031,3.9974,3.9967,3.9943,3.9904,3.9886,3.9855,3.9842,3.981,3.9792,3.9767,3.9724,3.9711,3.9701,3.9673,3.968,3.9681,3.9678,3.9679,3.9727,3.9673,3.9673,3.9673,3.9672,0,4.0142,4.0134,4.0072,4.0063,4.0052,4.0005,3.9995,3.9966,3.9932,3.9914,3.9872,3.9857,3.9802,3.9779,3.9746,3.9727,3.972,3.97,3.969,3.9702,3.9704,3.9689,3.9686,3.9673,3.9673,3.9673,3.9673,0,4.0201,4.016,4.014,4.0087,4.0073,4.0068,4.0021,4.001,3.9977,3.9956,3.9948,3.9897,3.9868,3.9823,3.9781,3.9758,3.9744,3.9731,3.9757,3.9751,3.9759,3.9758,3.9798,3.98,3.9747,3.9747,3.9748,0,4.0227,4.022,4.0166,4.0152,4.0129,4.0107,4.0088,4.0041,4.0023,3.9978,3.9971,3.9939,3.9911,3.9867,3.9825,3.9792,3.9775,3.9792,3.977,3.9781,3.9772,3.9772,3.977,3.9796,3.9797,3.9797,3.9798,0,4.0276,4.0255,4.0231,4.0198,4.0177,4.0148,4.0118,4.0109,4.0055,4.0036,4.0006,3.9985,3.9941,3.9909,3.987,3.9843,3.981,3.9805,3.9804,3.9815,3.983,3.9819,3.9768,3.9804,3.9804,3.9803,3.9803,3.9803,4.0317,4.0308,4.0268,4.0241,4.0213,4.0185,4.0171,4.0137,4.0111,4.0073,4.0047,4.0018,3.9977,3.9922,3.9896,3.9872,3.9858,3.9858,3.9857,3.9857,3.986,3.9836,3.9865,3.9865,3.9864,3.9864,3.9864,0,4.0362,4.0334,4.0309,4.0268,4.0246,4.0219,4.0184,4.0166,4.0142,4.0108,4.0081,4.0045,4.0013,3.9969,3.9933,3.9922,3.9906,3.9914,3.9913,3.9907,3.9876,3.9879,3.9927,3.9927,3.9927,3.9927,3.9927,3.9927,4.0382,4.0364,4.0338,4.0305,4.0276,4.0248,4.023,4.0203,4.0176,4.0138,4.0112,4.0083,4.0044,4.0005,3.9973,3.9961,3.9949,3.9961,3.9943,3.9915,3.9909,3.9904,3.9906,3.9959,3.9959,3.9975,3.9976,3.9976]}]]